User: anonymous   Login
Location: Unspecified
(0.0000°N, 0.0000°E)
Time: 22:56:26
(UTC+00:00)
Language:

Tiangong 1 - Orbit

View from above orbital plane
View from above orbital plane
View from above satellite
View from above satellite

Ground track
Ground track

The orbit data is extracted from the following two-line orbital elements,

1 37820U 11053A   14304.76855291  .00071000  00000-0  52391-3 0  5330
2 37820 042.7692 208.5675 0008941 218.5574 238.4250 15.72025779177496
Epoch (UTC): 31 October 2014 18:26:42
Eccentricity: 0.0008941
inclination: 42.7692°
perigee height: 347 km
apogee height: 359 km
right ascension of ascending node: 208.5675°
argument of perigee: 218.5574°
revolutions per day: 15.72025779
mean anomaly at epoch: 238.4250°
orbit number at epoch: 17749

The dashed part of the orbit path shows where the satellite is in the earth's shadow,  

DLR